Regional Weather Roundup
Issued by NWS

Home | Current Version | Previous Version | Graphics & Text | Print | Product List | Glossary On
Versions: 1 2 3 4 5 6 7 8 9 10 11 12 13 14 15 16 17 18 19 20 21 22 23 24 25 26 27 28 29 30 31 32 33 34 35 36 37 38 39 40 41 42 43 44 45 46 47 48 49 50
000
ASUS44 KMEG 291310
RWRTN
TENNESSEE HOURLY STATE WEATHER ROUNDUP
NATIONAL WEATHER SERVICE MEMPHIS TN
800 AM CDT MON JUN 29 2015

TNZ002-004-019-021-049-052-054-088>092-291400-
WEST TENNESSEE

CITY           SKY/WX    TMP DP  RH WIND       PRES   REMARKS
MEMPHIS INTL   PTSUNNY   74  67  78 SW6       29.96R
NWS MEMPHIS      N/A     74 N/A N/A MISG        N/A
JACKSON        CLOUDY    70  67  90 SW15      29.94R
DYERSBURG        N/A    N/A N/A N/A MISG        N/A
PARIS          SUNNY     72  64  78 SW9       29.90S
LEXINGTON      PTSUNNY   72  66  83 SW13      29.94R
$$

TNZ008-025-027-028-033-062-065-066-291400-
NORTH MIDDLE TENNESSEE

CITY           SKY/WX    TMP DP  RH WIND       PRES   REMARKS
NASHVILLE      MOSUNNY   72  67  84 S7        29.93S
CLARKSVILLE    SUNNY     73  65  75 SW9       29.88S
SMYRNA         PTSUNNY   71  64  78 S8        29.95S
COOKEVILLE     PTSUNNY   68  63  83 S3        29.98S
CROSSVILLE     PTSUNNY   67  56  67 VRB5      30.03R
$$

TNZ061-075-076-078-094-096-097-291400-
SOUTH MIDDLE TENNESSEE

CITY           SKY/WX    TMP DP  RH WIND       PRES   REMARKS
FAYETTEVILLE   PTSUNNY   66  59  77 S5        30.01R
TULLAHOMA      MOSUNNY   64  57  77 S6        30.01R
WINCHESTER     PTSUNNY   70  61  73 S7        30.01R
MCMINNVILLE    PTSUNNY   70  61  73 SW7       29.99R
COLUMBIA       MOSUNNY   72  66  83 SW15      29.94S
SHELBYVILLE    PTSUNNY   70  64  83 S7          N/A
$$

TNZ017-018-042-046-047-291400-
NORTHEAST TENNESSEE

CITY           SKY/WX    TMP DP  RH WIND       PRES   REMARKS
TRI CITIES     MOSUNNY   63  56  78 CALM      30.06R
ELIZABETHTON   SUNNY     63  55  77 CALM      30.06S
$$

TNZ012-013-036-069-073-074-291400-
CENTRAL EAST TENNESSEE

CITY           SKY/WX    TMP DP  RH WIND       PRES   REMARKS
KNOXVILLE      MOSUNNY   69  61  75 CALM      30.01S
OAK RIDGE      MOSUNNY   67  57  70 CALM      30.03S
GATLINBURG     SUNNY     66  55  68 CALM      30.02S
MORRISTOWN     SUNNY     68  55  64 CALM      30.03F
$$

TNZ083-085-099-291400-
SOUTHEAST TENNESSEE

CITY           SKY/WX    TMP DP  RH WIND       PRES   REMARKS
CHATTANOOGA    MOSUNNY   66  58  75 CALM      30.03R
$$

SKY/WX REPORTED AS FAIR MEANS FEW OR NO CLOUDS BELOW
12 THOUSAND FEET.




USA.gov is the U.S. government's official web portal to all federal, state and local government web resources and services.